Regional Weather Roundup
Issued by NWS

Home | Current Version | Previous Version | Text Only | Print | Product List | Glossary Off
Versions: 1 2 3 4 5 6 7 8 9 10 11 12 13 14 15 16 17 18 19 20 21 22 23 24 25 26 27 28 29 30 31 32 33 34 35 36 37 38 39 40 41 42 43 44 45 46 47 48 49 50

000
ASUS45 KSLC 050810
RWRUT

UTAH REGIONAL WEATHER ROUNDUP
NATIONAL WEATHER SERVICE SALT LAKE CITY UT
100 AM MST THU MAR 05 2015

UTZ001>011-023>025-050900-

NORTHERN UTAH

CITY           SKY/WX    TMP DP  RH WIND       PRES   REMARKS
BRIGHAM CITY   CLEAR     26  17  68 CALM      30.36S
HILL AFB       CLEAR     25  12  57 E13       30.34S WCI  14
LOGAN          CLEAR     24  17  74 CALM      30.34S
OGDEN          CLEAR     25  16  68 S9        30.34S WCI  15
PROVO AIRPORT  PTCLDY    27  18  69 E5        30.37R WCI  21
SALT LAKE CITY CLEAR     29  18  63 SE9       30.36R WCI  20
VERNAL         PTCLDY    18  11  74 CALM      30.30S
WENDOVER       CLEAR     27  16  63 CALM      30.34R
HEBER CITY     PTCLDY    14  10  85 SE3       30.35R
WEST JORDAN    CLEAR     27  18  69 SW5       30.36R WCI  21

$$

UTZ012>022-026-027-050900-

SOUTHERN/CENTRAL UTAH

CITY           SKY/WX    TMP DP  RH WIND       PRES   REMARKS
BLANDING       PTCLDY    22  13  67 NE5       30.35S WCI  15
BRYCE CANYON   PTCLDY     0  -3  87 W9        30.30R WCI -15
CEDAR CITY     PTCLDY    12   8  84 NE3       30.32R
DELTA          CLEAR     22  20  94 CALM      30.36R
HANKSVILLE     CLEAR     23  21  93 CALM      30.33R
MILFORD        CLEAR     23  15  71 CALM      30.34S
MOAB/CYNLANDS  CLEAR     27  19  72 CALM      30.29R
PRICE          CLEAR     28  11  48 VRB5      30.28R WCI  23
ST GEORGE      MOSUNNY   39  25  56 NW5       30.34S
KANAB          CLEAR     28  18  64 N8        30.35R WCI  20

$$

REGIONAL REPORTS     COLORADO/ARIZONA

CITY           SKY/WX    TMP DP  RH WIND       PRES   REMARKS
CRAIG, CO      PTCLDY     5   0  79 SE5       30.31R WCI  -4
GRAND JUNCTION CLEAR     26  12  55 E9        30.32R WCI  17
RIFLE          CLEAR     20   8  60 E5        30.36R WCI  13
MONTROSE       PTCLDY    23  13  65 SE7       30.35R WCI  15
CORTEZ         CLEAR     20  13  74 NE10      30.29S WCI   9
PAGE, AZ       CLEAR     35  22  58 SE3       30.30R
GRAND CANYON   PTCLDY    11   9  92 CALM      30.30R
KINGMAN        CLEAR     33  26  75 SE5       30.27R WCI  29
FLAGSTAFF      NOT AVBL

$$

REGIONAL REPORTS    NEVADA/IDAHO/WYOMING

CITY           SKY/WX    TMP DP  RH WIND       PRES   REMARKS
LAS VEGAS, NV  CLEAR     50  23  34 S5        30.26R
ELY            CLEAR     16  12  84 S8        30.33R WCI   5
ELKO           CLEAR     22  15  75 CALM      30.32R
POCATELLO, ID  CLEAR     24  12  60 CALM      30.32R
EVANSTON, WY   PTCLDY    13   7  77 SW12      30.26S WCI  -1
ROCK SPRINGS   CLEAR     15   8  73 SW21      30.21S WCI  -2

$$


USA.gov is the U.S. government's official web portal to all federal, state and local government web resources and services.